Weather Roundup
Issued by NWS Springfield, MO

Home | Current Version | Previous Version | Text Only | Print | Product List | Glossary On
Versions: 1 2 3 4 5 6 7 8 9 10 11 12 13 14 15 16 17 18 19 20 21 22 23 24 25 26 27 28 29 30 31 32 33 34 35 36 37 38 39 40 41 42 43 44 45 46 47 48 49 50
000
NZUS99 KSGF 052107
HRRSGF

HOURLY WEATHER
NATIONAL WEATHER SERVICE SPRINGFIELD MO
300 PM CST MON DEC 05 2016

......SGF CWA......

CITY           SKY/WX    TMP DP  RH WIND       PRES   REMARKS
SPRINGFIELD    CLOUDY    44  36  73 SE10      29.79F
JOPLIN         CLOUDY    47  38  71 SE10      29.77F
WEST PLAINS    CLOUDY    46  35  65 SE7       29.84F
ROLLA          MOSUNNY   46  34  62 E12       29.83F
OSAGE BEACH    CLOUDY    47  35  63 SE6       29.83
BRANSON        PTSUNNY   43  37  81 MISG      29.80F

......SURROUNDING SGF CWA......

CITY           SKY/WX    TMP DP  RH WIND       PRES   REMARKS
CHANUTE        MOSUNNY   51  39  63 SE17      29.74S
PARSONS        CLOUDY    49  39  68 S10G20    29.77S
COFFEYVILLE    MOSUNNY   50  41  71 S10       29.75F
EMPORIA        SUNNY     52  36  54 S16       29.68F
GROVE OK       MOSUNNY   50  39  66 SE3       29.77F
ROGERS AR      PTSUNNY   48  37  65 E3        29.77F
SILOAM SPRINGS MOSUNNY   48  37  66 CALM      29.76F
HARRISON AR    CLOUDY    44  37  76 E9        29.80F
NEAR YELLVILLE CLOUDY    45  36  70 SE5       29.81F

......KANSAS AND MISSOURI......

CITY           SKY/WX    TMP DP  RH WIND       PRES   REMARKS
KANSAS CTY INT MOSUNNY   51  32  48 S18G24    29.73F
DOWNTOWN KC    SUNNY     53  35  50 S14       29.75F
COLUMBIA       MOSUNNY   45  38  76 SE9       29.83F
SEDALIA        MOSUNNY   50  33  52 SE12      29.80F
ST JOSEPH      SUNNY     51  36  56 S15       29.74F
ST LOUIS       PTSUNNY   46  34  62 SE12      29.92F
SPIRIT OF STL  MOSUNNY   46  37  71 E10       29.91F
KIRKSVILLE     CLOUDY    39  38  96 SE8       29.85F FOG     WCI  33
WICHITA        SUNNY     54  37  52 S23       29.65F
TOPEKA         SUNNY     51  37  58 S17       29.71F
OLATHE         SUNNY     49  34  56 S13       29.74F

......TENNESSEE......

CITY           SKY/WX    TMP DP  RH WIND       PRES   REMARKS
MEMPHIS        CLOUDY    46  43  89 E12       29.84F
NASHVILLE      CLOUDY    47  42  83 E7        29.94F

......ARKANSAS.......

CITY           SKY/WX    TMP DP  RH WIND       PRES   REMARKS
FAYETTEVILLE   PTSUNNY   51  37  58 CALM      29.76F
FT SMITH       CLOUDY    49  40  71 E12       29.78F
LITTLE ROCK    CLOUDY    45  43  93 NE8       29.85S

......OKLAHOMA.......

CITY           SKY/WX    TMP DP  RH WIND       PRES   REMARKS
TULSA          CLOUDY    48  42  80 S9        29.75F
PONCA CITY     SUNNY     54  38  54 S13G23    29.70F
MCALESTER      CLOUDY    51  41  68 CALM      29.75F
OKLAHOMA CITY  MOSUNNY   51  41  68 S13       29.70F

......IOWA............

CITY           SKY/WX    TMP DP  RH WIND       PRES   REMARKS
DES MOINES     PTSUNNY   49  35  58 S18       29.76F
QUAD CITIES    CLOUDY    36  32  85 SE10      29.92F FOG     WCI  28

......ILLINOIS........

CITY           SKY/WX    TMP DP  RH WIND       PRES   REMARKS
QUINCY         PTSUNNY   39  37  92 SE12      29.89F FOG     WCI  32
CHICAGO        CLOUDY    32  30  92 S9        30.00S FOG     WCI  24



USA.gov is the U.S. government's official web portal to all federal, state and local government web resources and services.